Starlink 31740

operational
NORAD ID: 59433 Int'l Des: 2024-065 Owner: SPXS Country: US Constellation: starlink
LEOCIRCULAR

Starlink 31740について

説明を読み込み中...

リアルタイム位置

3D地球を読み込み中...

次回通過

高度履歴

Altitude vs Time

uPlot chart will show altitude changes over time

軌道要素

1 59433U 24065N 25307.83133834 .00001471 00000-0 61805-4 0 9998
2 59433 53.1603 148.1452 0001636 87.3299 272.7889 15.30198843 89634
Epoch: Nov 3, 2025 • Age: 16 hours

現在のステータス

高度 478.0 km
速度 7.63 km/s
衛星直下点 40.36°N, 37.55°W
打ち上げ日 Apr 7, 2024
運用期間 1.5 years
タイプ internet

技術仕様

分類 Payload
質量 730.00 kg
乾燥質量 700.00 kg
総質量 730.00 kg
長さ 0.30 m
直径 4.10 m
スパン 29.00 m
形状 Box + pan
製造者 SPXS
バスタイプ Starlink V2M
フェーズステータス In Orbit
所有者/国 SPXS/US

大規模コンステレーション

Loading constellations...